Regional Weather Roundup
Issued by NWS Little Rock, AR

Home | Current Version | Previous Version | Graphics & Text | Print | Product List | Glossary On
Versions: 1 2 3 4 5 6 7 8 9 10 11 12 13 14 15 16 17 18 19 20 21 22 23 24 25 26 27 28 29 30 31 32 33 34 35 36 37 38 39 40 41 42 43 44 45 46 47 48 49 50
094
ASUS44 KLZK 171605
RWRLZK

WEATHER ROUNDUP FOR ARKANSAS
NATIONAL WEATHER SERVICE LITTLE ROCK AR
1000 AM CST SUN DEC 17 2017

NOTE: "FAIR" INDICATES FEW OR NO CLOUDS BELOW 12,000 FEET WITH NO
SIGNIFICANT WEATHER AND/OR OBSTRUCTIONS TO VISIBILITY.

ARZ001-003-010-029-171700-
NORTHWEST ARKANSAS

CITY           SKY/WX    TMP DP  RH WIND       PRES   REMARKS
FAYETTEVILLE   CLOUDY    46  46 100 S5        30.10R
FORT SMITH     CLOUDY    47  46  97 SE3       30.12R
HARRISON       CLOUDY    44  44 100 CALM      30.09R FOG
BENTONVILLE    CLOUDY    43  42  97 CALM      30.11R FOG
ROGERS         CLOUDY    44  43  96 SW3       30.10R
SILOAM SPGS    LGT RAIN  44  43  96 CALM      30.09S FOG
HIGHFILL       CLOUDY    44  44 100 SW3       30.09R FOG
SPRINGDALE     CLOUDY    45  45 100 CALM      30.11R FOG
$$

ARZ004-005-016-171700-
NORTH CENTRAL ARKANSAS

CITY           SKY/WX    TMP DP  RH WIND       PRES   REMARKS
BATESVILLE     CLOUDY    44  42  93 S3        30.14S
FLIPPIN        CLOUDY    44  43  96 CALM      30.13R
MTN HOME       CLOUDY    43  43 100 SW3       30.11R
$$

ARZ040-041-171700-
WEST CENTRAL ARKANSAS

CITY           SKY/WX    TMP DP  RH WIND       PRES   REMARKS
MENA           NOT AVBL
$$

ARZ009-017-025-026-028-171700-
NORTHEAST ARKANSAS

CITY           SKY/WX    TMP DP  RH WIND       PRES   REMARKS
CORNING        CLOUDY    45  45 100 S3        30.14
JONESBORO      CLOUDY    45  44  97 S8        30.15R
NEWPORT        CLOUDY    44  42  93 S5        30.15R
WALNUT RIDGE   CLOUDY    44  42  93 S7        30.15R
BLYTHEVILLE    CLOUDY    45  45 100 SE10      30.13F
$$

ARZ022-023-033-042-044-171700-
CENTRAL ARKANSAS

CITY           SKY/WX    TMP DP  RH WIND       PRES   REMARKS
LITTLE ROCK    FOG       43  43 100 CALM      30.14F VSB 1
N LITTLE ROCK    N/A     43  42  96 CALM      30.16S
JACKSONVILLE   CLOUDY    44  43  99 CALM      30.13S FOG
SEARCY         CLOUDY    43  43 100 MISG        N/A
HOT SPRINGS    CLOUDY    45  44  97 CALM      30.14R
RUSSELLVILLE   CLOUDY    45  44  97 E5        30.13R
CLINTON        CLOUDY    45  43  93 S5        30.14R
$$

ARZ036-171700-
EAST ARKANSAS

CITY           SKY/WX    TMP DP  RH WIND       PRES   REMARKS
WEST MEMPHIS   CLOUDY    45  45 100 SE8       30.11S
$$

ARZ050-053-066-070-073-171700-
SOUTHWEST ARKANSAS

CITY           SKY/WX    TMP DP  RH WIND       PRES   REMARKS
ARKADELPHIA    CLOUDY    44  43  96 CALM      30.15R FOG
CAMDEN         CLOUDY    45  41  87 CALM      30.13R
TEXARKANA      FOG       44  44 100 E3        30.12R VSB 1/4
EL DORADO      FOG       43  43 100 CALM      30.14R VSB 1/4
DE QUEEN       CLOUDY    46  46 100 E3        30.11S
$$

ARZ056-057-069-171700-
SOUTHEAST ARKANSAS

CITY           SKY/WX    TMP DP  RH WIND       PRES   REMARKS
PINE BLUFF     CLOUDY    43  41  93 N3        30.13S
STUTTGART      CLOUDY    44  42  93 S3        30.14R
MONTICELLO     FOG       44  43  96 CALM      30.12R VSB 3/4

$$






USA.gov is the U.S. government's official web portal to all federal, state and local government web resources and services.